Amsterdam, Netherlands

3:22 PM CEST on October 17, 2019 (GMT +0200)
Schiphol

Weather History for EHAM - August, 2019

Change the Weather History Date:

Saturday, August 24, 2019

  Actual Average Record
Temperature  
Mean Temperature 70 °F -  
Max Temperature 84 °F 65 °F 86 °F (2016)
Min Temperature 56 °F 52 °F 47 °F (2014)
Cooling Degree Days 5    
Growing Degree Days 20 (Base 50)    
Moisture  
Dew Point 57 °F    
Average Humidity 62    
Maximum Humidity 95    
Minimum Humidity 23    
Precipitation  
Precipitation 0.00 in - - ()
Sea Level Pressure  
Sea Level Pressure 30.14 in    
Wind  
Wind Speed 5 mph ()    
Max Wind Speed 8 mph    
Max Gust Speed -    
Visibility 15.3 miles    
Events      
Averages and records for this station are not official NWS values.
T = Trace of Precipitation, MM = Missing Value Source: Averaged Metar Reports

Daily Weather History Graph

Daily Weather History Graph

Search for Another Location

Airport or City:

Astronomy

Aug. 24, 2019 Rise Set
Actual Time 6:38 AM CEST 8:47 PM CEST
Civil Twilight 6:01 AM CEST 9:24 PM CEST
Nautical Twilight 5:15 AM CEST 10:10 PM CEST
Astronomical Twilight 4:21 AM CEST 11:03 PM CEST
Moon 12:08 AM CEST (8/24) 4:05 PM CEST (8/24)
Length of Visible Light 15h 22m
Length of Day
14h 09m
Last Quarter, 42% of the Moon is Illuminated
Aug 24
Last Quarter
Aug 30
New
Sep 6
First Quarter
Sep 14
Full
Sep 22
Last Quarter

Hourly Weather History & Observations

Time (CEST) Temp. Heat Index Dew Point Humidity Pressure Visibility Wind Dir Wind Speed Gust Speed Precip Events Conditions
12:00 AM 64 °F - 61 °F 87% 30.23 in 13 mi ENE 6.7 mph - -   Partly Cloudy
12:25 AM 62.6 °F - 60.8 °F 94% 30.21 in - ENE 8.1 mph - N/A   Clear
12:55 AM 60.8 °F - 59.0 °F 94% 30.21 in - ENE 5.8 mph - N/A   Clear
1:00 AM 61 °F - 60 °F 95% 30.23 in 11 mi ENE 6.7 mph - -   Partly Cloudy
1:25 AM 60.8 °F - 59.0 °F 94% 30.21 in - ENE 6.9 mph - N/A   Clear
1:55 AM 60.8 °F - 59.0 °F 94% 30.21 in - ENE 5.8 mph - N/A   Clear
2:00 AM 60 °F - 58 °F 90% 30.22 in 14 mi ENE 4.5 mph - -   Partly Cloudy
2:25 AM 60.8 °F - 57.2 °F 88% 30.21 in - ENE 5.8 mph - N/A   Clear
2:55 AM 60.8 °F - 55.4 °F 82% 30.18 in - ENE 4.6 mph - N/A   Clear
3:00 AM 61 °F - 55 °F 76% 30.21 in 17 mi ENE 4.5 mph - -   Partly Cloudy
3:25 AM 60.8 °F - 53.6 °F 77% 30.18 in - East 4.6 mph - N/A   Clear
3:55 AM 59.0 °F - 53.6 °F 82% 30.18 in - East 6.9 mph - N/A   Clear
4:00 AM 60 °F - 53 °F 70% 30.20 in 19 mi East 6.7 mph - -   Partly Cloudy
4:25 AM 60.8 °F - 53.6 °F 77% 30.18 in - ENE 5.8 mph - N/A   Clear
4:55 AM 60.8 °F - 53.6 °F 77% 30.18 in - Variable 2.3 mph - N/A   Clear
5:25 AM 62.6 °F - 53.6 °F 72% 30.18 in - Variable 2.3 mph - N/A   Clear
5:55 AM 60.8 °F - 53.6 °F 77% 30.18 in - NE 3.5 mph - N/A   Clear
6:00 AM 58 °F - 53 °F 76% 30.18 in 17 mi NE 4.5 mph - -   Partly Cloudy
6:25 AM 59.0 °F - 53.6 °F 82% 30.15 in - ENE 3.5 mph - N/A   Clear
6:55 AM 57.2 °F - 53.6 °F 88% 30.15 in - ENE 3.5 mph - N/A   Clear
7:25 AM 59.0 °F - 55.4 °F 88% 30.15 in - Variable 2.3 mph - N/A   Clear
7:55 AM 60.8 °F - 57.2 °F 88% 30.15 in - ENE 3.5 mph - N/A   Clear
8:25 AM 64.4 °F - 57.2 °F 77% 30.15 in - ENE 5.8 mph - N/A   Clear
8:55 AM 66.2 °F - 57.2 °F 73% 30.15 in - East 5.8 mph - N/A   Clear
9:00 AM 66 °F - 56 °F 61% 30.18 in 14 mi East 4.5 mph - -   Partly Cloudy
9:25 AM 68.0 °F - 57.2 °F 68% 30.15 in - East 5.8 mph - N/A   Clear
9:55 AM 69.8 °F - 55.4 °F 60% 30.15 in - ESE 5.8 mph - N/A   Clear
10:00 AM 70 °F - 57 °F 53% 30.18 in 13 mi East 4.5 mph - -   Partly Cloudy
10:25 AM 71.6 °F - 55.4 °F 57% 30.15 in - ESE 3.5 mph - N/A   Clear
11:25 AM 75.2 °F - 59.0 °F 57% 30.15 in - East 3.5 mph - N/A   Clear
11:55 AM 77.0 °F - 57.2 °F 50% 30.15 in - East 4.6 mph - N/A   Clear
12:00 PM 76 °F - 58 °F 43% 30.17 in 12 mi East 4.5 mph - -  
12:25 PM 77.0 °F - 59.0 °F 54% 30.15 in - ENE 4.6 mph - N/A   Clear
12:55 PM 78.8 °F - 60.8 °F 54% 30.15 in - Variable 2.3 mph - N/A   Clear
1:00 PM 80 °F - 59 °F 38% 30.15 in 11 mi NE 2.2 mph - -   Partly Cloudy
1:25 PM 80.6 °F 81.1 °F 59.0 °F 48% 30.12 in - ENE 3.5 mph - N/A   Clear
1:55 PM 82.4 °F 82.9 °F 60.8 °F 48% 30.12 in - East 4.6 mph - N/A   Clear
2:00 PM 81 °F - 59 °F 36% 30.14 in 15 mi East 4.5 mph - -   Partly Cloudy
2:25 PM 82.4 °F 82.5 °F 59.0 °F 45% 30.12 in - NE 6.9 mph - N/A   Clear
2:55 PM 82.4 °F 82.0 °F 57.2 °F 42% 30.12 in - East 6.9 mph - N/A   Clear
3:00 PM 83 °F - 58 °F 33% 30.13 in 22 mi East 6.7 mph - -   Partly Cloudy
3:25 PM 82.4 °F 82.0 °F 57.2 °F 42% 30.12 in - East 5.8 mph - N/A   Clear
3:55 PM 84.2 °F 83.0 °F 55.4 °F 37% 30.12 in - SE 5.8 mph - N/A   Clear
4:00 PM 83 °F - 56 °F 29% 30.12 in 22 mi ESE 6.7 mph - -   Partly Cloudy
4:25 PM 84.2 °F 83.0 °F 55.4 °F 37% 30.09 in - Variable 5.8 mph - N/A   Clear
4:55 PM 84.2 °F 82.8 °F 53.6 °F 35% 30.09 in - East 6.9 mph - N/A   Clear
5:00 PM 84 °F - 53 °F 25% 30.11 in 19 mi ESE 6.7 mph - -   Partly Cloudy
5:25 PM 84.2 °F - 51.8 °F 33% 30.09 in - ESE 5.8 mph - N/A   Clear
5:55 PM 82.4 °F - 51.8 °F 35% 30.09 in - East 6.9 mph - N/A   Clear
6:00 PM 83 °F - 51 °F 23% 30.10 in 19 mi East 4.5 mph - -   Partly Cloudy
6:25 PM 82.4 °F - 51.8 °F 35% 30.09 in - ESE 4.6 mph - N/A   Clear
6:55 PM 82.4 °F 81.4 °F 53.6 °F 37% 30.09 in - ESE 4.6 mph - N/A   Clear
7:00 PM 82 °F - 52 °F 25% 30.09 in 25 mi SE 4.5 mph - -   Partly Cloudy
7:25 PM 80.6 °F 80.3 °F 53.6 °F 39% 30.06 in - East 4.6 mph - N/A   Clear
7:55 PM 78.8 °F - 57.2 °F 47% 30.06 in - East 3.5 mph - N/A   Clear
8:00 PM 80 °F - 53 °F 29% 30.09 in 28 mi East 2.2 mph - -   Partly Cloudy
8:25 PM 75.2 °F - 62.6 °F 65% 30.06 in - NE 3.5 mph - N/A   Clear
8:55 PM 73.4 °F - 59.0 °F 61% 30.06 in - NE 2.3 mph - N/A   Clear
9:00 PM 68 °F - 58 °F 61% 30.09 in 16 mi ENE 2.2 mph - -   Overcast
9:25 PM 69.8 °F - 59.0 °F 68% 30.09 in - NE 3.5 mph - N/A   Clear
9:55 PM 68.0 °F - 59.0 °F 73% 30.09 in - NE 3.5 mph - N/A   Clear
10:25 PM 68.0 °F - 60.8 °F 78% 30.09 in - NE 3.5 mph - N/A   Clear
10:55 PM 66.2 °F - 59.0 °F 78% 30.09 in - NE 3.5 mph - N/A   Clear
11:00 PM 67 °F - 60 °F 72% 30.09 in 19 mi NE 4.5 mph - -   Partly Cloudy
11:25 PM 66.2 °F - 60.8 °F 83% 30.09 in - NE 3.5 mph - N/A   Clear
11:55 PM 66.2 °F - 59.0 °F 78% 30.06 in - NE 2.3 mph - N/A   Clear